Weather History for EGDM - December, 2012

Change the Weather History Date:

Sunday, December 16, 2012

  Actual Average Record
Temperature  
Mean Temperature 42 °F -  
Max Temperature 48 °F 42 °F 54 °F (2013)
Min Temperature 37 °F 34 °F 26 °F (1997)
Degree Days  
Heating Degree Days 22    
Moisture  
Dew Point 41 °F    
Average Humidity 95    
Maximum Humidity 100    
Minimum Humidity 87    
Precipitation  
Precipitation 0.12 in - - ()
Sea Level Pressure  
Sea Level Pressure 29.50 in    
Wind  
Wind Speed 9 mph ()    
Max Wind Speed 20 mph    
Max Gust Speed 43 mph    
Visibility 6.1 miles    
Events Rain    
Averages and records for this station are not official NWS values.
T = Trace of Precipitation, MM = Missing Value Source: Averaged Metar Reports

Daily Weather History Graph

Daily Weather History Graph

Search for Another Location

Airport or City:

Trip Planner

Search our weather history database for the weather conditions in past years. The results will help you decide how hot, cold, wet, or windy it might be!

Date:

Astronomy

Dec. 16, 2012 Rise Set
Actual Time 8:05 AM GMT 4:00 PM GMT
Civil Twilight 7:25 AM GMT 4:39 PM GMT
Nautical Twilight 6:42 AM GMT 5:22 PM GMT
Astronomical Twilight 6:02 AM GMT 6:03 PM GMT
Moon 10:10 AM GMT (12/16) 8:18 PM GMT (12/16)
Length of Visible Light 9h 14m
Length of Day
7h 54m
Waxing Crescent, 14% of the Moon is Illuminated
Dec 16
Waxing Crescent
Dec 20
First Quarter
Dec 28
Full
Jan 5
Last Quarter
Jan 11
New

Hourly Weather History & Observations

Time (GMT) Temp. Windchill Dew Point Humidity Pressure Visibility Wind Dir Wind Speed Gust Speed Precip Events Conditions
12:50 AM 41.0 °F 33.9 °F 39.2 °F 93% 29.44 in 6.2 mi SW 12.7 mph - N/A   Partly Cloudy
1:50 AM 41.0 °F 33.5 °F 39.2 °F 93% 29.44 in 6.2 mi SW 13.8 mph - N/A   Unknown
2:50 AM 40 °F - 39 °F 95% 29.50 in 1 mi SSW 10.4 mph - -   Light Haze
2:50 AM 39.2 °F 32.5 °F 39.2 °F 100% 29.47 in 1.0 mi SSW 10.4 mph - N/A   Partly Cloudy
3:50 AM 39.2 °F 34.2 °F 37.4 °F 93% 29.47 in 6.2 mi South 6.9 mph - N/A   Scattered Clouds
4:50 AM 39.2 °F 33.0 °F 39.2 °F 100% 29.50 in 6.2 mi SW 9.2 mph - N/A   Scattered Clouds
5:50 AM 41 °F - 39 °F 91% 29.53 in 8 mi WSW 4.6 mph - -   Partly Cloudy
5:50 AM 41.0 °F 38.0 °F 39.2 °F 93% 29.50 in 6.2 mi WSW 4.6 mph - N/A   Scattered Clouds
6:50 AM 41.0 °F 38.0 °F 39.2 °F 93% 29.53 in 6.2 mi South 4.6 mph - N/A   Scattered Clouds
7:50 AM 37.4 °F 30.8 °F 37.4 °F 100% 29.53 in 6.2 mi SSW 9.2 mph - N/A   Scattered Clouds
8:50 AM 38 °F - 38 °F 98% 29.58 in 16 mi SW 9.2 mph - -   Scattered Clouds
8:50 AM 37.4 °F 30.8 °F 37.4 °F 100% 29.53 in 6.2 mi SW 9.2 mph - N/A   Scattered Clouds
9:50 AM 41.0 °F 35.8 °F 39.2 °F 93% 29.56 in - South 8.1 mph - N/A   Clear
10:50 AM 44.6 °F 40.2 °F 42.8 °F 93% 29.56 in 6.2 mi South 8.1 mph - N/A   Partly Cloudy
11:50 AM 46 °F - 44 °F 88% 29.57 in 16 mi South 8.1 mph - -   Scattered Clouds
11:50 AM 46.4 °F 42.4 °F 42.8 °F 87% 29.53 in 6.2 mi South 8.1 mph - N/A   Scattered Clouds
12:50 PM 48.2 °F - 44.6 °F 87% 29.53 in 6.2 mi South 8.1 mph - N/A   Scattered Clouds
1:50 PM 46.4 °F 42.4 °F 42.8 °F 87% 29.50 in 6.2 mi South 8.1 mph - N/A   Mostly Cloudy
2:00 PM 46.4 °F 41.9 °F 42.8 °F 87% 29.50 in 4.3 mi South 9.2 mph - N/A Rain Light Rain Showers
2:07 PM 46.4 °F 41.5 °F 44.6 °F 93% 29.50 in 2.8 mi South 10.4 mph - N/A Rain Rain Showers
2:12 PM 44.6 °F 36.6 °F 42.8 °F 93% 29.50 in 1.9 mi SSW 19.6 mph 42.6 mph N/A Rain Rain Showers
2:20 PM 42.8 °F 34.3 °F 41.0 °F 93% 29.50 in 3.1 mi WSW 19.6 mph 35.7 mph N/A Rain Rain Showers
2:38 PM 42.8 °F 39.3 °F 42.8 °F 100% 29.50 in 5.6 mi West 5.8 mph - N/A Rain Light Rain Showers
2:50 PM 44 °F - 42 °F 90% 29.51 in 9 mi WNW 2.3 mph - - Rain Light Rain Showers
2:50 PM 44.6 °F - 42.8 °F 93% 29.47 in 6.2 mi WNW 2.3 mph - N/A   Scattered Clouds
3:50 PM 41.0 °F 35.2 °F 39.2 °F 93% 29.47 in 6.2 mi SSE 9.2 mph - N/A   Mostly Cloudy
4:50 PM 41.0 °F 35.8 °F 39.2 °F 93% 29.47 in 6.2 mi SSE 8.1 mph - N/A   Mostly Cloudy
5:50 PM 41 °F - 40 °F 97% 29.51 in 9 mi SSE 8.1 mph - -   Scattered Clouds
5:50 PM 41.0 °F 35.8 °F 41.0 °F 100% 29.47 in 6.2 mi SSE 8.1 mph - N/A   Mostly Cloudy
6:50 PM 42.8 °F 36.6 °F 41.0 °F 93% 29.47 in 6.2 mi South 11.5 mph - N/A   Scattered Clouds
7:50 PM 42.8 °F 36.6 °F 42.8 °F 100% 29.47 in 6.2 mi South 11.5 mph - N/A   Mostly Cloudy
8:50 PM 41 °F - 41 °F 98% 29.50 in 4 mi SSW 12.7 mph - -   Mist
8:50 PM 41.0 °F 33.9 °F 41.0 °F 100% 29.47 in 4.3 mi SSW 12.7 mph - N/A   Partly Cloudy
9:50 PM 39.2 °F 32.5 °F 39.2 °F 100% 29.47 in 4.3 mi SSW 10.4 mph - N/A   Scattered Clouds
10:50 PM 41.0 °F 33.5 °F 41.0 °F 100% 29.47 in 5.0 mi SW 13.8 mph - N/A   Mist
11:50 PM 41 °F - 40 °F 97% 29.51 in 6 mi SSW 12.7 mph - -   Light Haze
11:50 PM 41.0 °F 33.9 °F 41.0 °F 100% 29.47 in 5.6 mi SSW 12.7 mph - N/A   Mostly Cloudy